Time,TemperatureF,DewpointF,PressureIn,WindDirection,WindDirectionDegrees,WindSpeedMPH,WindSpeedGustMPH,Humidity,HourlyPrecipIn,Conditions,Clouds,dailyrainin,SoftwareType,DateUTC
2013-10-14 00:00:00,59.3,58.7,30.28,ENE,71,0.0,5.0,98,0.00,,,0.00,Wunderground v.1.15,2013-10-14 04:00:00,
2013-10-14 00:05:00,59.3,58.7,30.28,ENE,71,0.0,5.0,98,0.00,,,0.00,Wunderground v.1.15,2013-10-14 04:05:00,
2013-10-14 00:10:00,59.3,58.7,30.28,ENE,71,0.0,5.0,98,0.00,,,0.00,Wunderground v.1.15,2013-10-14 04:10:00,
2013-10-14 00:15:00,59.3,58.7,30.28,ENE,71,0.0,5.0,98,0.00,,,0.00,Wunderground v.1.15,2013-10-14 04:15:00,
2013-10-14 00:20:00,59.3,58.7,30.28,ENE,71,0.0,5.0,98,0.00,,,0.00,Wunderground v.1.15,2013-10-14 04:20:00,
2013-10-14 00:25:00,59.3,58.7,30.28,ENE,71,0.0,5.0,98,0.00,,,0.00,Wunderground v.1.15,2013-10-14 04:25:00,
2013-10-14 00:30:00,59.3,58.7,30.28,ENE,71,0.0,5.0,98,0.00,,,0.00,Wunderground v.1.15,2013-10-14 04:30:00,
2013-10-14 00:35:00,59.3,58.7,30.28,ENE,71,0.0,5.0,98,0.00,,,0.00,Wunderground v.1.15,2013-10-14 04:35:00,
2013-10-14 00:40:00,59.3,58.7,30.28,ENE,71,0.0,5.0,98,0.00,,,0.00,Wunderground v.1.15,2013-10-14 04:40:00,
2013-10-14 00:45:00,59.3,58.7,30.28,ENE,71,0.0,5.0,98,0.00,,,0.00,Wunderground v.1.15,2013-10-14 04:45:00,
2013-10-14 00:50:00,59.3,58.7,30.28,ENE,71,0.0,5.0,98,0.00,,,0.00,Wunderground v.1.15,2013-10-14 04:50:00,
2013-10-14 00:55:00,59.3,58.7,30.28,ENE,71,0.0,5.0,98,0.00,,,0.00,Wunderground v.1.15,2013-10-14 04:55:00,
2013-10-14 01:00:00,59.3,58.7,30.27,ENE,71,0.0,5.0,98,0.00,,,0.00,Wunderground v.1.15,2013-10-14 05:00:00,
2013-10-14 01:05:00,59.2,58.6,30.27,ENE,71,0.0,5.0,98,0.00,,,0.00,Wunderground v.1.15,2013-10-14 05:05:00,
2013-10-14 01:10:00,59.1,58.5,30.28,ENE,71,0.0,5.0,98,0.00,,,0.00,Wunderground v.1.15,2013-10-14 05:10:00,
2013-10-14 01:15:00,59.1,58.5,30.28,ENE,71,0.0,5.0,98,0.00,,,0.00,Wunderground v.1.15,2013-10-14 05:15:00,
2013-10-14 01:20:00,59.1,58.5,30.28,ENE,71,0.0,5.0,98,0.00,,,0.00,Wunderground v.1.15,2013-10-14 05:20:00,
2013-10-14 01:30:00,59.0,58.4,30.27,ENE,71,0.0,5.0,98,0.00,,,0.01,Wunderground v.1.15,2013-10-14 05:30:00,
2013-10-14 01:40:00,58.9,58.3,30.28,ENE,71,0.0,5.0,98,0.00,,,0.01,Wunderground v.1.15,2013-10-14 05:40:00,
2013-10-14 01:45:00,58.8,58.2,30.28,ENE,71,0.0,5.0,98,0.00,,,0.01,Wunderground v.1.15,2013-10-14 05:45:00,
2013-10-14 01:55:00,58.6,58.0,30.28,ENE,71,0.0,5.0,98,0.00,,,0.01,Wunderground v.1.15,2013-10-14 05:55:00,
2013-10-14 02:05:00,58.4,57.8,30.28,ENE,71,0.0,5.0,98,0.00,,,0.01,Wunderground v.1.15,2013-10-14 06:05:00,
2013-10-14 02:15:00,58.4,57.8,30.28,ENE,71,0.0,5.0,98,0.00,,,0.01,Wunderground v.1.15,2013-10-14 06:15:00,
2013-10-14 02:20:00,58.4,57.8,30.28,ENE,71,0.0,5.0,98,0.00,,,0.01,Wunderground v.1.15,2013-10-14 06:20:00,
2013-10-14 02:25:00,58.3,57.7,30.28,ENE,71,0.0,5.0,98,0.00,,,0.01,Wunderground v.1.15,2013-10-14 06:25:00,
2013-10-14 02:30:00,58.3,57.7,30.27,ENE,71,0.0,5.0,98,0.00,,,0.01,Wunderground v.1.15,2013-10-14 06:30:00,
2013-10-14 02:35:00,58.2,57.6,30.27,ENE,71,0.0,5.0,98,0.00,,,0.01,Wunderground v.1.15,2013-10-14 06:35:00,
2013-10-14 02:40:00,58.2,57.6,30.27,ENE,71,0.0,5.0,98,0.00,,,0.01,Wunderground v.1.15,2013-10-14 06:40:00,
2013-10-14 02:45:00,58.0,57.4,30.27,ENE,71,0.0,5.0,98,0.00,,,0.01,Wunderground v.1.15,2013-10-14 06:45:00,
2013-10-14 02:50:00,57.9,57.3,30.27,ENE,71,0.0,5.0,98,0.00,,,0.01,Wunderground v.1.15,2013-10-14 06:50:00,
2013-10-14 02:55:00,57.7,57.1,30.27,ENE,71,0.0,5.0,98,0.00,,,0.01,Wunderground v.1.15,2013-10-14 06:55:00,
2013-10-14 03:00:00,57.5,56.9,30.27,ENE,71,0.0,5.0,98,0.00,,,0.01,Wunderground v.1.15,2013-10-14 07:00:00,
2013-10-14 03:10:00,57.2,56.6,30.27,ENE,71,0.0,5.0,98,0.00,,,0.01,Wunderground v.1.15,2013-10-14 07:10:00,
2013-10-14 03:15:00,57.1,56.5,30.27,ENE,71,0.0,5.0,98,0.00,,,0.01,Wunderground v.1.15,2013-10-14 07:15:00,
2013-10-14 03:20:00,56.9,56.3,30.27,ENE,71,0.0,5.0,98,0.00,,,0.01,Wunderground v.1.15,2013-10-14 07:20:00,
2013-10-14 03:25:00,56.9,56.3,30.27,ENE,71,0.0,5.0,98,0.00,,,0.01,Wunderground v.1.15,2013-10-14 07:25:00,
2013-10-14 03:30:00,56.8,56.2,30.26,ENE,71,0.0,5.0,98,0.00,,,0.01,Wunderground v.1.15,2013-10-14 07:30:00,
2013-10-14 03:35:00,56.9,56.3,30.26,ENE,71,0.0,5.0,98,0.00,,,0.01,Wunderground v.1.15,2013-10-14 07:35:00,
2013-10-14 03:40:00,56.9,56.6,30.26,ENE,71,0.0,5.0,99,0.00,,,0.01,Wunderground v.1.15,2013-10-14 07:40:00,
2013-10-14 03:45:00,56.9,56.6,30.26,ENE,71,0.0,5.0,99,0.00,,,0.01,Wunderground v.1.15,2013-10-14 07:45:00,
2013-10-14 03:55:00,57.0,56.7,30.26,ENE,71,0.0,5.0,99,0.00,,,0.01,Wunderground v.1.15,2013-10-14 07:55:00,
2013-10-14 04:05:00,57.2,56.9,30.26,ENE,71,0.0,5.0,99,0.00,,,0.01,Wunderground v.1.15,2013-10-14 08:05:00,
2013-10-14 04:10:00,57.3,57.0,30.26,ENE,71,0.0,5.0,99,0.00,,,0.01,Wunderground v.1.15,2013-10-14 08:10:00,
2013-10-14 04:15:00,57.5,57.2,30.26,ENE,71,0.0,5.0,99,0.00,,,0.01,Wunderground v.1.15,2013-10-14 08:15:00,
2013-10-14 04:20:00,57.5,57.2,30.26,ENE,71,0.0,5.0,99,0.00,,,0.01,Wunderground v.1.15,2013-10-14 08:20:00,
2013-10-14 04:25:00,57.7,57.4,30.26,ENE,71,0.0,5.0,99,0.00,,,0.01,Wunderground v.1.15,2013-10-14 08:25:00,
2013-10-14 04:30:00,57.8,57.5,30.26,ENE,71,0.0,5.0,99,0.00,,,0.01,Wunderground v.1.15,2013-10-14 08:30:00,
2013-10-14 04:35:00,57.8,57.5,30.26,ENE,71,0.0,5.0,99,0.00,,,0.01,Wunderground v.1.15,2013-10-14 08:35:00,
2013-10-14 04:40:00,57.8,57.5,30.26,ENE,71,0.0,5.0,99,0.00,,,0.01,Wunderground v.1.15,2013-10-14 08:40:00,
2013-10-14 04:45:00,57.8,57.5,30.26,ENE,71,0.0,5.0,99,0.00,,,0.01,Wunderground v.1.15,2013-10-14 08:45:00,
2013-10-14 04:50:00,57.9,57.6,30.26,ENE,71,0.0,5.0,99,0.00,,,0.01,Wunderground v.1.15,2013-10-14 08:50:00,
2013-10-14 05:00:00,57.9,57.6,30.26,ENE,71,0.0,5.0,99,0.00,,,0.01,Wunderground v.1.15,2013-10-14 09:00:00,
2013-10-14 05:05:00,57.9,57.6,30.26,ENE,71,0.0,5.0,99,0.00,,,0.01,Wunderground v.1.15,2013-10-14 09:05:00,
2013-10-14 05:10:00,57.9,57.6,30.26,ENE,71,0.0,5.0,99,0.00,,,0.01,Wunderground v.1.15,2013-10-14 09:10:00,
2013-10-14 05:15:00,57.8,57.5,30.26,ENE,71,0.0,5.0,99,0.00,,,0.01,Wunderground v.1.15,2013-10-14 09:15:00,
2013-10-14 05:25:00,57.7,57.4,30.26,ENE,71,0.0,5.0,99,0.00,,,0.01,Wunderground v.1.15,2013-10-14 09:25:00,
2013-10-14 05:30:00,57.7,57.4,30.26,ENE,71,0.0,5.0,99,0.00,,,0.01,Wunderground v.1.15,2013-10-14 09:30:00,
2013-10-14 05:35:00,57.8,57.5,30.26,ENE,71,0.0,5.0,99,0.00,,,0.01,Wunderground v.1.15,2013-10-14 09:35:00,
2013-10-14 05:40:00,57.7,57.4,30.26,ENE,71,0.0,5.0,99,0.00,,,0.01,Wunderground v.1.15,2013-10-14 09:40:00,
2013-10-14 05:45:00,57.7,57.4,30.26,ENE,71,0.0,5.0,99,0.00,,,0.01,Wunderground v.1.15,2013-10-14 09:45:00,
2013-10-14 05:50:00,57.7,57.4,30.27,ENE,71,0.0,5.0,99,0.00,,,0.01,Wunderground v.1.15,2013-10-14 09:50:00,
2013-10-14 05:55:00,57.8,57.5,30.27,ENE,71,0.0,5.0,99,0.00,,,0.01,Wunderground v.1.15,2013-10-14 09:55:00,
2013-10-14 06:05:00,57.8,57.5,30.27,ENE,71,0.0,5.0,99,0.00,,,0.01,Wunderground v.1.15,2013-10-14 10:05:00,
2013-10-14 06:10:00,57.8,57.5,30.27,ENE,71,0.0,5.0,99,0.00,,,0.01,Wunderground v.1.15,2013-10-14 10:10:00,
2013-10-14 06:15:00,57.8,57.5,30.27,ENE,71,0.0,5.0,99,0.00,,,0.01,Wunderground v.1.15,2013-10-14 10:15:00,
2013-10-14 06:20:00,57.7,57.4,30.27,ENE,71,0.0,5.0,99,0.00,,,0.01,Wunderground v.1.15,2013-10-14 10:20:00,
2013-10-14 06:25:00,57.7,57.4,30.27,ENE,71,0.0,5.0,99,0.00,,,0.01,Wunderground v.1.15,2013-10-14 10:25:00,
2013-10-14 06:30:00,57.7,57.4,30.27,ENE,71,0.0,5.0,99,0.00,,,0.01,Wunderground v.1.15,2013-10-14 10:30:00,
2013-10-14 06:35:00,57.7,57.4,30.27,ENE,71,0.0,5.0,99,0.00,,,0.01,Wunderground v.1.15,2013-10-14 10:35:00,
2013-10-14 06:40:00,57.6,57.3,30.27,ENE,71,0.0,5.0,99,0.00,,,0.01,Wunderground v.1.15,2013-10-14 10:40:00,
2013-10-14 06:45:00,57.7,57.4,30.27,ENE,71,0.0,5.0,99,0.00,,,0.01,Wunderground v.1.15,2013-10-14 10:45:00,
2013-10-14 06:50:00,57.6,57.3,30.28,ENE,71,0.0,5.0,99,0.00,,,0.01,Wunderground v.1.15,2013-10-14 10:50:00,
2013-10-14 06:55:00,57.6,57.3,30.28,ENE,71,0.0,5.0,99,0.00,,,0.01,Wunderground v.1.15,2013-10-14 10:55:00,
2013-10-14 07:00:00,57.4,57.1,30.27,ENE,70,0.0,5.0,99,0.00,,,0.01,Wunderground v.1.15,2013-10-14 11:00:00,
2013-10-14 07:10:00,57.1,56.5,30.28,ENE,70,0.0,5.0,98,0.00,,,0.01,Wunderground v.1.15,2013-10-14 11:10:00,
2013-10-14 07:15:00,56.8,56.2,30.28,ENE,70,0.0,5.0,98,0.00,,,0.01,Wunderground v.1.15,2013-10-14 11:15:00,
2013-10-14 07:25:00,56.5,55.9,30.28,ENE,70,0.0,5.0,98,0.00,,,0.01,Wunderground v.1.15,2013-10-14 11:25:00,
2013-10-14 07:30:00,56.4,55.8,30.29,ENE,70,0.0,5.0,98,0.00,,,0.01,Wunderground v.1.15,2013-10-14 11:30:00,
2013-10-14 07:35:00,56.2,55.6,30.29,ENE,70,0.0,5.0,98,0.00,,,0.01,Wunderground v.1.15,2013-10-14 11:35:00,
2013-10-14 07:40:00,56.1,55.5,30.29,ENE,70,0.0,5.0,98,0.00,,,0.01,Wunderground v.1.15,2013-10-14 11:40:00,
2013-10-14 07:45:00,56.0,55.4,30.29,ENE,70,0.0,5.0,98,0.00,,,0.01,Wunderground v.1.15,2013-10-14 11:45:00,
2013-10-14 07:55:00,56.0,55.7,30.29,ENE,70,0.0,5.0,99,0.00,,,0.01,Wunderground v.1.15,2013-10-14 11:55:00,
2013-10-14 08:05:00,56.0,55.7,30.30,ENE,70,0.0,5.0,99,0.00,,,0.01,Wunderground v.1.15,2013-10-14 12:05:00,
2013-10-14 08:10:00,56.1,55.8,30.30,ENE,70,0.0,5.0,99,0.00,,,0.01,Wunderground v.1.15,2013-10-14 12:10:00,
2013-10-14 08:20:00,56.4,56.1,30.30,ENE,70,0.0,5.0,99,0.00,,,0.01,Wunderground v.1.15,2013-10-14 12:20:00,
2013-10-14 08:25:00,56.6,56.3,30.30,ENE,70,0.0,5.0,99,0.00,,,0.01,Wunderground v.1.15,2013-10-14 12:25:00,
2013-10-14 08:30:00,56.7,56.4,30.30,ENE,70,0.0,5.0,99,0.00,,,0.01,Wunderground v.1.15,2013-10-14 12:30:00,
2013-10-14 08:35:00,56.9,56.6,30.31,ENE,70,0.0,5.0,99,0.00,,,0.01,Wunderground v.1.15,2013-10-14 12:35:00,
2013-10-14 08:40:00,57.1,56.8,30.31,ENE,70,0.0,5.0,99,0.00,,,0.01,Wunderground v.1.15,2013-10-14 12:40:00,
2013-10-14 08:45:00,57.2,56.9,30.31,ENE,70,0.0,5.0,99,0.00,,,0.01,Wunderground v.1.15,2013-10-14 12:45:00,
2013-10-14 08:50:00,57.5,57.2,30.31,ENE,70,0.0,5.0,99,0.00,,,0.01,Wunderground v.1.15,2013-10-14 12:50:00,
2013-10-14 08:55:00,57.6,57.3,30.31,ENE,70,0.0,5.0,99,0.00,,,0.01,Wunderground v.1.15,2013-10-14 12:55:00,
2013-10-14 09:00:00,57.8,57.5,30.31,ENE,70,0.0,5.0,99,0.00,,,0.01,Wunderground v.1.15,2013-10-14 13:00:00,
2013-10-14 09:05:00,57.9,57.6,30.31,ENE,70,0.0,5.0,99,0.00,,,0.01,Wunderground v.1.15,2013-10-14 13:05:00,
2013-10-14 09:10:00,58.0,57.7,30.31,ENE,70,0.0,5.0,99,0.00,,,0.01,Wunderground v.1.15,2013-10-14 13:10:00,
2013-10-14 09:15:00,58.1,57.8,30.31,ENE,70,0.0,5.0,99,0.00,,,0.01,Wunderground v.1.15,2013-10-14 13:15:00,
2013-10-14 09:20:00,58.2,57.9,30.31,ENE,70,0.0,5.0,99,0.00,,,0.01,Wunderground v.1.15,2013-10-14 13:20:00,
2013-10-14 09:25:00,58.2,57.9,30.31,ENE,70,0.0,5.0,99,0.00,,,0.01,Wunderground v.1.15,2013-10-14 13:25:00,
2013-10-14 09:30:00,58.2,57.9,30.31,NW,312,0.0,5.0,99,0.00,,,0.01,Wunderground v.1.15,2013-10-14 13:30:00,
2013-10-14 09:35:00,58.3,58.0,30.31,NW,312,0.0,5.0,99,0.00,,,0.01,Wunderground v.1.15,2013-10-14 13:35:00,
2013-10-14 09:40:00,58.5,58.2,30.31,NW,312,0.0,5.0,99,0.00,,,0.01,Wunderground v.1.15,2013-10-14 13:40:00,
2013-10-14 09:45:00,58.7,58.4,30.31,NW,312,0.0,5.0,99,0.00,,,0.01,Wunderground v.1.15,2013-10-14 13:45:00,
2013-10-14 09:50:00,59.1,58.8,30.31,NW,312,0.0,5.0,99,0.00,,,0.01,Wunderground v.1.15,2013-10-14 13:50:00,
2013-10-14 09:55:00,59.4,59.1,30.31,NW,312,0.0,5.0,99,0.00,,,0.01,Wunderground v.1.15,2013-10-14 13:55:00,
2013-10-14 10:05:00,59.3,59.0,30.31,NNW,328,0.0,5.0,99,0.00,,,0.01,Wunderground v.1.15,2013-10-14 14:05:00,
2013-10-14 10:15:00,58.8,58.5,30.31,NNW,335,0.0,5.0,99,0.00,,,0.01,Wunderground v.1.15,2013-10-14 14:15:00,
2013-10-14 10:20:00,59.0,58.7,30.31,WNW,298,0.0,5.0,99,0.00,,,0.01,Wunderground v.1.15,2013-10-14 14:20:00,
2013-10-14 10:25:00,59.0,58.7,30.31,NW,308,0.0,5.0,99,0.00,,,0.01,Wunderground v.1.15,2013-10-14 14:25:00,
2013-10-14 10:30:00,59.1,58.8,30.31,NW,308,0.0,5.0,99,0.00,,,0.01,Wunderground v.1.15,2013-10-14 14:30:00,
2013-10-14 10:35:00,59.3,59.0,30.31,NW,308,0.0,5.0,99,0.00,,,0.01,Wunderground v.1.15,2013-10-14 14:35:00,
2013-10-14 10:40:00,59.5,59.2,30.31,NW,308,0.0,5.0,99,0.00,,,0.01,Wunderground v.1.15,2013-10-14 14:40:00,
2013-10-14 10:45:00,59.7,59.4,30.31,NW,308,0.0,5.0,99,0.00,,,0.01,Wunderground v.1.15,2013-10-14 14:45:00,
2013-10-14 10:50:00,59.8,59.5,30.31,NW,308,0.0,5.0,99,0.00,,,0.01,Wunderground v.1.15,2013-10-14 14:50:00,
2013-10-14 11:00:00,60.0,59.7,30.31,WSW,258,0.0,5.0,99,0.00,,,0.01,Wunderground v.1.15,2013-10-14 15:00:00,
2013-10-14 11:05:00,59.8,59.5,30.31,WSW,258,0.0,5.0,99,0.00,,,0.01,Wunderground v.1.15,2013-10-14 15:05:00,
2013-10-14 11:10:00,59.8,59.2,30.31,WSW,258,0.0,5.0,98,0.00,,,0.01,Wunderground v.1.15,2013-10-14 15:10:00,
2013-10-14 11:15:00,59.9,59.0,30.31,WSW,258,0.0,5.0,97,0.00,,,0.01,Wunderground v.1.15,2013-10-14 15:15:00,
2013-10-14 11:20:00,60.0,59.1,30.31,WSW,258,0.0,5.0,97,0.00,,,0.01,Wunderground v.1.15,2013-10-14 15:20:00,
2013-10-14 11:25:00,60.2,59.3,30.31,WSW,258,0.0,5.0,97,0.00,,,0.01,Wunderground v.1.15,2013-10-14 15:25:00,
2013-10-14 11:30:00,60.3,59.4,30.31,WSW,258,0.0,5.0,97,0.00,,,0.01,Wunderground v.1.15,2013-10-14 15:30:00,
2013-10-14 11:35:00,60.5,59.6,30.31,West,279,0.0,5.0,97,0.00,,,0.01,Wunderground v.1.15,2013-10-14 15:35:00,
2013-10-14 11:40:00,60.4,59.5,30.31,West,280,0.0,5.0,97,0.00,,,0.01,Wunderground v.1.15,2013-10-14 15:40:00,
2013-10-14 11:45:00,60.5,59.6,30.31,West,280,0.0,5.0,97,0.00,,,0.01,Wunderground v.1.15,2013-10-14 15:45:00,
2013-10-14 11:50:00,60.6,59.7,30.30,West,280,0.0,5.0,97,0.00,,,0.01,Wunderground v.1.15,2013-10-14 15:50:00,
2013-10-14 11:55:00,60.8,60.2,30.31,West,280,0.0,5.0,98,0.00,,,0.01,Wunderground v.1.15,2013-10-14 15:55:00,
2013-10-14 12:00:00,60.6,59.7,30.30,West,280,0.0,5.0,97,0.00,,,0.01,Wunderground v.1.15,2013-10-14 16:00:00,
2013-10-14 12:05:00,60.6,59.7,30.31,West,280,0.0,5.0,97,0.00,,,0.01,Wunderground v.1.15,2013-10-14 16:05:00,
2013-10-14 12:10:00,60.8,59.9,30.30,West,280,0.0,5.0,97,0.00,,,0.01,Wunderground v.1.15,2013-10-14 16:10:00,
2013-10-14 12:15:00,60.7,59.8,30.30,NW,313,0.0,5.0,97,0.00,,,0.01,Wunderground v.1.15,2013-10-14 16:15:00,
2013-10-14 12:20:00,60.7,59.8,30.30,NW,313,0.0,5.0,97,0.00,,,0.01,Wunderground v.1.15,2013-10-14 16:20:00,
2013-10-14 12:25:00,60.6,59.7,30.30,NW,313,0.0,5.0,97,0.00,,,0.02,Wunderground v.1.15,2013-10-14 16:25:00,
2013-10-14 12:30:00,60.6,59.7,30.30,NNW,327,0.0,5.0,97,0.00,,,0.02,Wunderground v.1.15,2013-10-14 16:30:00,
2013-10-14 12:35:00,61.0,60.4,30.30,NW,324,0.0,5.0,98,0.00,,,0.02,Wunderground v.1.15,2013-10-14 16:35:00,
2013-10-14 12:40:00,61.3,60.7,30.30,NW,324,0.0,5.0,98,0.00,,,0.02,Wunderground v.1.15,2013-10-14 16:40:00,
2013-10-14 12:45:00,61.5,60.9,30.30,NNW,338,0.0,5.0,98,0.00,,,0.02,Wunderground v.1.15,2013-10-14 16:45:00,
2013-10-14 12:50:00,61.4,60.2,30.30,NNW,338,0.0,5.0,96,0.00,,,0.02,Wunderground v.1.15,2013-10-14 16:50:00,
2013-10-14 12:55:00,61.7,60.8,30.29,NNW,338,0.0,5.0,97,0.00,,,0.02,Wunderground v.1.15,2013-10-14 16:55:00,
2013-10-14 13:00:00,62.1,61.5,30.29,NNW,338,0.0,5.0,98,0.00,,,0.02,Wunderground v.1.15,2013-10-14 17:00:00,
2013-10-14 13:10:00,62.6,61.7,30.29,NNW,338,0.0,5.0,97,0.00,,,0.02,Wunderground v.1.15,2013-10-14 17:10:00,
2013-10-14 13:15:00,62.5,61.0,30.29,NNW,338,0.0,5.0,95,0.00,,,0.02,Wunderground v.1.15,2013-10-14 17:15:00,
2013-10-14 13:20:00,62.3,60.8,30.28,NNW,338,0.0,5.0,95,0.00,,,0.02,Wunderground v.1.15,2013-10-14 17:20:00,
2013-10-14 13:25:00,62.1,59.7,30.28,NNW,340,0.0,5.0,92,0.00,,,0.02,Wunderground v.1.15,2013-10-14 17:25:00,
2013-10-14 13:30:00,62.1,60.4,30.28,NNW,328,0.0,5.0,94,0.00,,,0.02,Wunderground v.1.15,2013-10-14 17:30:00,
2013-10-14 13:35:00,62.3,60.8,30.28,NNW,328,0.0,5.0,95,0.00,,,0.02,Wunderground v.1.15,2013-10-14 17:35:00,
2013-10-14 13:40:00,62.7,60.9,30.27,NNW,328,0.0,5.0,94,0.00,,,0.02,Wunderground v.1.15,2013-10-14 17:40:00,
2013-10-14 13:45:00,63.0,60.9,30.27,NW,323,0.0,5.0,93,0.00,,,0.02,Wunderground v.1.15,2013-10-14 17:45:00,
2013-10-14 13:50:00,63.1,60.4,30.27,WNW,292,0.0,5.0,91,0.00,,,0.02,Wunderground v.1.15,2013-10-14 17:50:00,
2013-10-14 13:55:00,63.4,60.4,30.27,NW,306,0.0,5.0,90,0.00,,,0.02,Wunderground v.1.15,2013-10-14 17:55:00,
2013-10-14 14:00:00,63.5,59.9,30.26,WNW,296,0.0,5.0,88,0.00,,,0.02,Wunderground v.1.15,2013-10-14 18:00:00,
2013-10-14 14:05:00,63.6,60.3,30.26,WNW,296,0.0,5.0,89,0.00,,,0.02,Wunderground v.1.15,2013-10-14 18:05:00,
2013-10-14 14:10:00,63.9,60.9,30.26,WNW,296,0.0,5.0,90,0.00,,,0.02,Wunderground v.1.15,2013-10-14 18:10:00,
2013-10-14 14:15:00,64.1,61.1,30.26,WNW,296,0.0,5.0,90,0.00,,,0.02,Wunderground v.1.15,2013-10-14 18:15:00,
2013-10-14 14:20:00,64.2,60.6,30.26,NNW,341,0.0,5.0,88,0.00,,,0.02,Wunderground v.1.15,2013-10-14 18:20:00,
2013-10-14 14:25:00,64.2,59.9,30.25,NNW,327,0.0,5.0,86,0.00,,,0.02,Wunderground v.1.15,2013-10-14 18:25:00,
2013-10-14 14:30:00,64.3,60.7,30.25,NW,326,0.0,5.0,88,0.00,,,0.02,Wunderground v.1.15,2013-10-14 18:30:00,
2013-10-14 14:35:00,64.7,60.1,30.25,NW,326,0.0,5.0,85,0.00,,,0.02,Wunderground v.1.15,2013-10-14 18:35:00,
2013-10-14 14:40:00,64.8,59.9,30.25,NNE,12,0.0,5.0,84,0.00,,,0.02,Wunderground v.1.15,2013-10-14 18:40:00,
2013-10-14 14:45:00,64.8,59.5,30.25,NNW,346,0.0,5.0,83,0.00,,,0.02,Wunderground v.1.15,2013-10-14 18:45:00,
2013-10-14 14:50:00,64.9,60.3,30.25,NNW,346,0.0,5.0,85,0.00,,,0.02,Wunderground v.1.15,2013-10-14 18:50:00,
2013-10-14 15:01:00,65.2,61.2,30.25,NW,315,0.0,5.0,87,0.00,,,0.02,Wunderground v.1.15,2013-10-14 19:01:00,
2013-10-14 15:05:00,65.4,60.8,30.25,North,360,0.0,5.0,85,0.00,,,0.02,Wunderground v.1.15,2013-10-14 19:05:00,
2013-10-14 15:10:00,65.7,60.7,30.25,NNE,27,0.0,5.0,84,0.00,,,0.02,Wunderground v.1.15,2013-10-14 19:10:00,
2013-10-14 15:15:00,65.7,59.7,30.25,North,9,0.0,5.0,81,0.00,,,0.02,Wunderground v.1.15,2013-10-14 19:15:00,
2013-10-14 15:25:00,65.5,60.2,30.24,NNE,30,0.0,5.0,83,0.00,,,0.02,Wunderground v.1.15,2013-10-14 19:25:00,
2013-10-14 15:30:00,65.4,59.4,30.24,NW,309,0.0,5.0,81,0.00,,,0.02,Wunderground v.1.15,2013-10-14 19:30:00,
2013-10-14 15:35:00,65.5,60.2,30.24,NW,309,0.0,5.0,83,0.00,,,0.02,Wunderground v.1.15,2013-10-14 19:35:00,
2013-10-14 15:40:00,65.5,60.5,30.24,NW,309,0.0,5.0,84,0.00,,,0.02,Wunderground v.1.15,2013-10-14 19:40:00,
2013-10-14 15:45:00,65.4,61.1,30.24,NW,309,0.0,5.0,86,0.00,,,0.02,Wunderground v.1.15,2013-10-14 19:45:00,
2013-10-14 15:50:00,65.4,60.8,30.24,NW,309,0.0,5.0,85,0.00,,,0.02,Wunderground v.1.15,2013-10-14 19:50:00,
2013-10-14 15:55:00,65.6,61.6,30.24,NW,309,0.0,5.0,87,0.00,,,0.02,Wunderground v.1.15,2013-10-14 19:55:00,
2013-10-14 16:00:00,65.7,61.1,30.24,NW,309,0.0,5.0,85,0.00,,,0.02,Wunderground v.1.15,2013-10-14 20:00:00,
2013-10-14 16:05:00,65.6,60.6,30.24,NW,309,0.0,5.0,84,0.00,,,0.02,Wunderground v.1.15,2013-10-14 20:05:00,
2013-10-14 16:15:00,65.3,61.0,30.24,North,355,0.0,5.0,86,0.00,,,0.02,Wunderground v.1.15,2013-10-14 20:15:00,
2013-10-14 16:20:00,65.0,61.0,30.24,North,355,0.0,5.0,87,0.00,,,0.02,Wunderground v.1.15,2013-10-14 20:20:00,
2013-10-14 16:25:00,65.0,60.7,30.24,North,355,0.0,5.0,86,0.00,,,0.02,Wunderground v.1.15,2013-10-14 20:25:00,
2013-10-14 16:30:00,64.7,60.1,30.24,North,355,0.0,5.0,85,0.00,,,0.02,Wunderground v.1.15,2013-10-14 20:30:00,
2013-10-14 16:35:00,64.4,60.1,30.24,North,355,0.0,5.0,86,0.00,,,0.02,Wunderground v.1.15,2013-10-14 20:35:00,
2013-10-14 16:40:00,64.1,59.8,30.24,North,355,0.0,5.0,86,0.00,,,0.02,Wunderground v.1.15,2013-10-14 20:40:00,
2013-10-14 16:45:00,64.1,60.2,30.24,North,355,0.0,5.0,87,0.00,,,0.02,Wunderground v.1.15,2013-10-14 20:45:00,
2013-10-14 16:50:00,64.3,60.3,30.24,North,355,0.0,5.0,87,0.00,,,0.02,Wunderground v.1.15,2013-10-14 20:50:00,
2013-10-14 16:55:00,64.2,59.9,30.23,North,355,0.0,5.0,86,0.00,,,0.02,Wunderground v.1.15,2013-10-14 20:55:00,
2013-10-14 17:05:00,64.3,60.3,30.24,North,355,0.0,5.0,87,0.00,,,0.02,Wunderground v.1.15,2013-10-14 21:05:00,
2013-10-14 17:10:00,64.4,60.4,30.24,North,355,0.0,5.0,87,0.00,,,0.02,Wunderground v.1.15,2013-10-14 21:10:00,
2013-10-14 17:15:00,64.3,60.3,30.23,North,355,0.0,5.0,87,0.00,,,0.02,Wunderground v.1.15,2013-10-14 21:15:00,
2013-10-14 17:20:00,64.1,59.8,30.23,North,355,0.0,5.0,86,0.00,,,0.02,Wunderground v.1.15,2013-10-14 21:20:00,
2013-10-14 17:25:00,63.8,59.5,30.23,North,355,0.0,5.0,86,0.00,,,0.02,Wunderground v.1.15,2013-10-14 21:25:00,
2013-10-14 17:30:00,63.7,59.8,30.24,North,355,0.0,5.0,87,0.00,,,0.02,Wunderground v.1.15,2013-10-14 21:30:00,
2013-10-14 17:35:00,63.6,59.7,30.24,North,355,0.0,5.0,87,0.00,,,0.02,Wunderground v.1.15,2013-10-14 21:35:00,
2013-10-14 17:40:00,63.5,59.9,30.24,North,355,0.0,5.0,88,0.00,,,0.02,Wunderground v.1.15,2013-10-14 21:40:00,
2013-10-14 17:45:00,63.5,59.6,30.24,North,355,0.0,5.0,87,0.00,,,0.02,Wunderground v.1.15,2013-10-14 21:45:00,
2013-10-14 17:50:00,63.3,59.4,30.24,North,355,0.0,5.0,87,0.00,,,0.02,Wunderground v.1.15,2013-10-14 21:50:00,
2013-10-14 17:55:00,63.1,59.2,30.25,North,355,0.0,5.0,87,0.00,,,0.02,Wunderground v.1.15,2013-10-14 21:55:00,
2013-10-14 18:01:00,62.7,59.1,30.25,North,355,0.0,5.0,88,0.00,,,0.02,Wunderground v.1.15,2013-10-14 22:01:00,
2013-10-14 18:10:00,62.1,59.1,30.25,North,355,0.0,5.0,90,0.00,,,0.02,Wunderground v.1.15,2013-10-14 22:10:00,
2013-10-14 18:15:00,61.8,58.8,30.25,North,355,0.0,5.0,90,0.00,,,0.02,Wunderground v.1.15,2013-10-14 22:15:00,
2013-10-14 18:20:00,61.7,58.7,30.25,North,355,0.0,5.0,90,0.00,,,0.02,Wunderground v.1.15,2013-10-14 22:20:00,
2013-10-14 18:25:00,61.5,58.8,30.25,North,355,0.0,5.0,91,0.00,,,0.02,Wunderground v.1.15,2013-10-14 22:25:00,
2013-10-14 18:30:00,61.3,58.3,30.25,North,355,0.0,5.0,90,0.00,,,0.02,Wunderground v.1.15,2013-10-14 22:30:00,
2013-10-14 18:35:00,60.9,57.9,30.25,North,355,0.0,5.0,90,0.00,,,0.02,Wunderground v.1.15,2013-10-14 22:35:00,
2013-10-14 18:40:00,60.6,57.7,30.25,North,355,0.0,5.0,90,0.00,,,0.02,Wunderground v.1.15,2013-10-14 22:40:00,
2013-10-14 18:45:00,60.3,57.7,30.26,North,355,0.0,5.0,91,0.00,,,0.02,Wunderground v.1.15,2013-10-14 22:45:00,
2013-10-14 18:50:00,60.0,57.4,30.26,North,355,0.0,5.0,91,0.00,,,0.02,Wunderground v.1.15,2013-10-14 22:50:00,
2013-10-14 18:55:00,59.7,57.4,30.25,North,355,0.0,5.0,92,0.00,,,0.02,Wunderground v.1.15,2013-10-14 22:55:00,
2013-10-14 19:00:00,59.5,56.9,30.25,North,355,0.0,5.0,91,0.00,,,0.02,Wunderground v.1.15,2013-10-14 23:00:00,
2013-10-14 19:05:00,59.4,56.8,30.26,North,355,0.0,5.0,91,0.00,,,0.02,Wunderground v.1.15,2013-10-14 23:05:00,
2013-10-14 19:10:00,59.3,56.7,30.26,North,355,0.0,5.0,91,0.00,,,0.02,Wunderground v.1.15,2013-10-14 23:10:00,
2013-10-14 19:15:00,59.2,56.6,30.26,North,355,0.0,5.0,91,0.00,,,0.02,Wunderground v.1.15,2013-10-14 23:15:00,
2013-10-14 19:20:00,59.0,56.4,30.26,North,355,0.0,5.0,91,0.00,,,0.02,Wunderground v.1.15,2013-10-14 23:20:00,
2013-10-14 19:25:00,58.8,56.2,30.26,North,355,0.0,5.0,91,0.00,,,0.02,Wunderground v.1.15,2013-10-14 23:25:00,
2013-10-14 19:30:00,58.6,56.3,30.26,North,355,0.0,5.0,92,0.00,,,0.02,Wunderground v.1.15,2013-10-14 23:30:00,
2013-10-14 19:35:00,58.5,56.2,30.27,North,355,0.0,5.0,92,0.00,,,0.02,Wunderground v.1.15,2013-10-14 23:35:00,
2013-10-14 19:40:00,58.4,56.1,30.27,North,355,0.0,5.0,92,0.00,,,0.02,Wunderground v.1.15,2013-10-14 23:40:00,
2013-10-14 19:45:00,58.4,56.4,30.27,North,355,0.0,5.0,93,0.00,,,0.02,Wunderground v.1.15,2013-10-14 23:45:00,
2013-10-14 19:50:00,58.4,56.4,30.27,North,355,0.0,5.0,93,0.00,,,0.02,Wunderground v.1.15,2013-10-14 23:50:00,
2013-10-14 19:55:00,58.4,56.4,30.27,North,355,0.0,5.0,93,0.00,,,0.02,Wunderground v.1.15,2013-10-14 23:55:00,
2013-10-14 20:01:00,58.3,56.3,30.27,North,355,0.0,5.0,93,0.00,,,0.02,Wunderground v.1.15,2013-10-15 00:01:00,
2013-10-14 20:05:00,58.2,56.2,30.27,North,355,0.0,5.0,93,0.00,,,0.02,Wunderground v.1.15,2013-10-15 00:05:00,
2013-10-14 20:10:00,58.1,56.4,30.28,North,355,0.0,5.0,94,0.00,,,0.02,Wunderground v.1.15,2013-10-15 00:10:00,
2013-10-14 20:15:00,58.0,56.3,30.27,North,355,0.0,5.0,94,0.00,,,0.02,Wunderground v.1.15,2013-10-15 00:15:00,
2013-10-14 20:20:00,57.9,56.2,30.27,North,355,0.0,5.0,94,0.00,,,0.02,Wunderground v.1.15,2013-10-15 00:20:00,
2013-10-14 20:25:00,57.8,56.1,30.27,North,355,0.0,5.0,94,0.00,,,0.02,Wunderground v.1.15,2013-10-15 00:25:00,
2013-10-14 20:30:00,57.6,55.9,30.27,North,355,0.0,5.0,94,0.00,,,0.02,Wunderground v.1.15,2013-10-15 00:30:00,
2013-10-14 20:35:00,57.5,56.1,30.27,North,355,0.0,5.0,95,0.00,,,0.02,Wunderground v.1.15,2013-10-15 00:35:00,
2013-10-14 20:40:00,57.4,56.0,30.27,North,355,0.0,5.0,95,0.00,,,0.02,Wunderground v.1.15,2013-10-15 00:40:00,
2013-10-14 20:45:00,57.3,55.9,30.26,North,355,0.0,5.0,95,0.00,,,0.02,Wunderground v.1.15,2013-10-15 00:45:00,
2013-10-14 20:50:00,57.2,55.8,30.27,North,355,0.0,5.0,95,0.00,,,0.02,Wunderground v.1.15,2013-10-15 00:50:00,
2013-10-14 20:55:00,57.1,56.0,30.27,North,355,0.0,5.0,96,0.00,,,0.02,Wunderground v.1.15,2013-10-15 00:55:00,
2013-10-14 21:10:00,57.1,56.0,30.27,North,355,0.0,5.0,96,0.00,,,0.02,Wunderground v.1.15,2013-10-15 01:10:00,
2013-10-14 21:15:00,57.2,56.1,30.27,North,355,0.0,5.0,96,0.00,,,0.02,Wunderground v.1.15,2013-10-15 01:15:00,
2013-10-14 21:20:00,57.3,56.2,30.27,North,355,0.0,5.0,96,0.00,,,0.02,Wunderground v.1.15,2013-10-15 01:20:00,
2013-10-14 21:25:00,57.2,56.1,30.27,North,355,0.0,5.0,96,0.00,,,0.02,Wunderground v.1.15,2013-10-15 01:25:00,
2013-10-14 21:30:00,57.2,56.1,30.27,North,355,0.0,5.0,96,0.00,,,0.02,Wunderground v.1.15,2013-10-15 01:30:00,
2013-10-14 21:35:00,57.0,55.6,30.27,North,355,0.0,5.0,95,0.00,,,0.02,Wunderground v.1.15,2013-10-15 01:35:00,
2013-10-14 21:45:00,56.8,55.4,30.27,North,355,0.0,5.0,95,0.00,,,0.02,Wunderground v.1.15,2013-10-15 01:45:00,
2013-10-14 21:50:00,56.7,55.6,30.27,North,355,0.0,5.0,96,0.00,,,0.02,Wunderground v.1.15,2013-10-15 01:50:00,
2013-10-14 21:55:00,56.6,55.2,30.27,North,355,0.0,5.0,95,0.00,,,0.02,Wunderground v.1.15,2013-10-15 01:55:00,
2013-10-14 22:01:00,56.4,55.0,30.28,North,355,0.0,5.0,95,0.00,,,0.02,Wunderground v.1.15,2013-10-15 02:01:00,
2013-10-14 22:05:00,56.4,55.3,30.28,North,355,0.0,5.0,96,0.00,,,0.02,Wunderground v.1.15,2013-10-15 02:05:00,
2013-10-14 22:10:00,56.4,55.3,30.28,North,355,0.0,5.0,96,0.00,,,0.02,Wunderground v.1.15,2013-10-15 02:10:00,
2013-10-14 22:20:00,56.3,55.2,30.28,North,355,0.0,5.0,96,0.00,,,0.02,Wunderground v.1.15,2013-10-15 02:20:00,
2013-10-14 22:25:00,56.3,55.2,30.28,North,355,0.0,5.0,96,0.00,,,0.02,Wunderground v.1.15,2013-10-15 02:25:00,
2013-10-14 22:30:00,56.2,55.1,30.28,North,355,0.0,5.0,96,0.00,,,0.02,Wunderground v.1.15,2013-10-15 02:30:00,
2013-10-14 22:35:00,56.2,55.1,30.28,North,355,0.0,5.0,96,0.00,,,0.02,Wunderground v.1.15,2013-10-15 02:35:00,
2013-10-14 22:40:00,56.2,55.4,30.28,North,355,0.0,5.0,97,0.00,,,0.02,Wunderground v.1.15,2013-10-15 02:40:00,
2013-10-14 22:45:00,56.2,55.4,30.28,North,355,0.0,5.0,97,0.00,,,0.02,Wunderground v.1.15,2013-10-15 02:45:00,
2013-10-14 22:50:00,56.1,55.0,30.28,North,355,0.0,5.0,96,0.00,,,0.02,Wunderground v.1.15,2013-10-15 02:50:00,
2013-10-14 22:55:00,56.1,55.0,30.28,North,355,0.0,5.0,96,0.00,,,0.02,Wunderground v.1.15,2013-10-15 02:55:00,
2013-10-14 23:01:00,56.1,55.0,30.28,North,355,0.0,5.0,96,0.00,,,0.02,Wunderground v.1.15,2013-10-15 03:01:00,
2013-10-14 23:05:00,56.1,55.3,30.28,North,355,0.0,5.0,97,0.00,,,0.02,Wunderground v.1.15,2013-10-15 03:05:00,
2013-10-14 23:10:00,56.1,55.3,30.28,North,355,0.0,5.0,97,0.00,,,0.02,Wunderground v.1.15,2013-10-15 03:10:00,
2013-10-14 23:15:00,56.1,55.3,30.28,North,355,0.0,5.0,97,0.00,,,0.02,Wunderground v.1.15,2013-10-15 03:15:00,
2013-10-14 23:20:00,56.2,55.4,30.28,North,355,0.0,5.0,97,0.00,,,0.02,Wunderground v.1.15,2013-10-15 03:20:00,
2013-10-14 23:25:00,56.3,55.5,30.27,North,355,0.0,5.0,97,0.00,,,0.02,Wunderground v.1.15,2013-10-15 03:25:00,
2013-10-14 23:30:00,56.4,55.6,30.27,North,355,0.0,5.0,97,0.00,,,0.02,Wunderground v.1.15,2013-10-15 03:30:00,
2013-10-14 23:35:00,56.5,55.7,30.27,North,355,0.0,5.0,97,0.00,,,0.02,Wunderground v.1.15,2013-10-15 03:35:00,
2013-10-14 23:40:00,56.6,55.8,30.27,North,355,0.0,5.0,97,0.00,,,0.02,Wunderground v.1.15,2013-10-15 03:40:00,
2013-10-14 23:45:00,56.7,55.9,30.27,North,355,0.0,5.0,97,0.00,,,0.02,Wunderground v.1.15,2013-10-15 03:45:00,
2013-10-14 23:50:00,56.7,55.9,30.27,North,355,0.0,5.0,97,0.00,,,0.02,Wunderground v.1.15,2013-10-15 03:50:00,
2013-10-14 23:55:00,56.7,55.9,30.27,North,355,0.0,5.0,97,0.00,,,0.02,Wunderground v.1.15,2013-10-15 03:55:00,